New Bern, NC

9:23 AM EST on December 12, 2017 (GMT -0500)
Craven County Regional

Weather History for KEWN - June, 2014

Change the Weather History Date:

Friday, June 6, 2014

  Actual Average Record
Temperature  
Mean Temperature 78 °F 75 °F  
Max Temperature 85 °F 85 °F 97 °F (2008)
Min Temperature 70 °F 65 °F 51 °F (1950)
Degree Days  
Heating Degree Days 0 0  
Month to date heating degree days 0 0  
Since 1 June heating degree days 0 0  
Since 1 July heating degree days 2637 2701  
Cooling Degree Days 13 10  
Month to date cooling degree days 58 57  
Year to date cooling degree days 419 300  
Since 1 June cooling degree days 58 57  
Growing Degree Days 28 (Base 50)    
Moisture  
Dew Point 66 °F    
Average Humidity 68    
Maximum Humidity 93    
Minimum Humidity 43    
Precipitation  
Precipitation 0.00 in 0.15 in 1.34 in (1981)
Month to date precipitation 0.23 0.89  
Year to date precipitation 18.11 20.28  
Snow  
Snow 0.00 in - - ()
Month to date snowfall 0.0  
Since 1 July snowfall 14.0  
Snow Depth 0.00 in    
Sea Level Pressure  
Sea Level Pressure 29.90 in    
Wind  
Wind Speed 7 mph (East)    
Max Wind Speed 14 mph    
Max Gust Speed 18 mph    
Visibility 10 miles    
Events Rain    
T = Trace of Precipitation, MM = Missing Value Source: NWS Daily Summary

Daily Weather History Graph

Daily Weather History Graph

Search for Another Location

Airport or City:

Trip Planner

Search our weather history database for the weather conditions in past years. The results will help you decide how hot, cold, wet, or windy it might be!

Date:

Astronomy

Jun. 06, 2014 Rise Set
Actual Time 5:54 AM EDT 8:19 PM EDT
Civil Twilight 5:24 AM EDT 8:49 PM EDT
Nautical Twilight 4:48 AM EDT 9:25 PM EDT
Astronomical Twilight 4:08 AM EDT 10:05 PM EDT
Moon 1:51 PM EDT (6/6) 1:29 AM EDT (6/6)
Length of Visible Light 15h 24m
Length of Day
14h 25m
First Quarter, 58% of the Moon is Illuminated
Jun 6
First Quarter
Jun 13
Full
Jun 19
Last Quarter
Jun 27
New
Jul 5
First Quarter

Hourly Weather History & Observations

Time (EDT) Temp. Heat Index Dew Point Humidity Pressure Visibility Wind Dir Wind Speed Gust Speed Precip Events Conditions
12:54 AM 72.0 °F - 69.1 °F 91% 29.86 in 9.0 mi Calm Calm - 0.01 in Rain Light Rain
1:54 AM 72.0 °F - 69.1 °F 91% 29.85 in 8.0 mi Calm Calm - 0.00 in   Clear
2:33 AM 71.6 °F - 69.8 °F 94% 29.85 in 9.0 mi NNE 4.6 mph - N/A   Mostly Cloudy
2:54 AM 72.0 °F - 69.1 °F 91% 29.85 in 10.0 mi ENE 5.8 mph - N/A   Overcast
3:15 AM 71.6 °F - 69.8 °F 94% 29.85 in 10.0 mi ENE 5.8 mph - N/A   Overcast
3:54 AM 71.1 °F - 69.1 °F 93% 29.84 in 10.0 mi East 4.6 mph - N/A   Overcast
4:18 AM 71.6 °F - 68.0 °F 88% 29.85 in 10.0 mi ENE 4.6 mph - N/A   Overcast
4:54 AM 72.0 °F - 68.0 °F 87% 29.86 in 10.0 mi East 6.9 mph - N/A   Overcast
5:04 AM 71.6 °F - 68.0 °F 88% 29.86 in 10.0 mi East 4.6 mph - N/A   Overcast
5:54 AM 72.0 °F - 68.0 °F 87% 29.88 in 10.0 mi East 3.5 mph - N/A   Overcast
6:22 AM 73.4 °F - 68.0 °F 83% 29.88 in 10.0 mi ENE 4.6 mph - N/A   Overcast
6:54 AM 72.0 °F - 68.0 °F 87% 29.90 in 10.0 mi NE 3.5 mph - N/A   Mostly Cloudy
7:54 AM 73.9 °F - 68.0 °F 82% 29.90 in 10.0 mi East 4.6 mph - N/A   Partly Cloudy
8:54 AM 77.0 °F - 68.0 °F 74% 29.91 in 10.0 mi ESE 6.9 mph - N/A   Clear
9:54 AM 79.0 °F - 66.9 °F 66% 29.91 in 10.0 mi NE 6.9 mph - N/A   Clear
11:54 AM 82.0 °F 82.4 °F 60.1 °F 47% 29.92 in 10.0 mi East 11.5 mph - N/A   Clear
12:54 PM 82.9 °F 82.6 °F 57.9 °F 42% 29.92 in 10.0 mi East 9.2 mph - N/A   Scattered Clouds
1:54 PM 84.0 °F 84.5 °F 62.1 °F 47% 29.91 in 10.0 mi ESE 8.1 mph - N/A   Scattered Clouds
2:54 PM 84.0 °F 83.8 °F 59.0 °F 43% 29.91 in 10.0 mi ESE 11.5 mph - N/A   Clear
3:54 PM 82.9 °F 82.8 °F 59.0 °F 44% 29.91 in 10.0 mi ESE 11.5 mph 18.4 mph N/A   Clear
5:54 PM 81.0 °F 81.6 °F 60.1 °F 49% 29.92 in 10.0 mi East 10.4 mph - N/A   Partly Cloudy
6:54 PM 78.1 °F - 61.0 °F 56% 29.93 in 10.0 mi ESE 6.9 mph - N/A   Partly Cloudy
7:54 PM 77.0 °F - 64.0 °F 64% 29.94 in 10.0 mi East 6.9 mph - N/A   Mostly Cloudy
8:54 PM 75.0 °F - 64.9 °F 71% 29.96 in 10.0 mi East 4.6 mph - N/A   Partly Cloudy
9:54 PM 73.0 °F - 64.9 °F 76% 29.96 in 10.0 mi East 4.6 mph - N/A   Clear
10:54 PM 72.0 °F - 64.9 °F 78% 29.97 in 10.0 mi NE 5.8 mph - N/A   Scattered Clouds
11:54 PM 71.1 °F - 64.9 °F 81% 29.97 in 10.0 mi NE 3.5 mph - N/A   Clear